sat.trackr.live / text

‹ back to catalog

LEMU NGE

NORAD 60532 · 2024-149BS

PAYLOAD ACTIVE UNKNOWN

§ Identity

Operator
Country
CHLE
Launch date
2024-08-16
Launch site
AFWTR
Launch vehicle
Mass (kg)
RCS (m²)

External: N2YO · Heavens-Above · Gunter

§ Orbital elements

Epoch: 2026-05-25T03:49:27.694848Z

Period
96.33 min
Inclination
97.6847°
Eccentricity
0.0002770
Mean motion
14.94839914 rev/d
Perigee alt
580.9 km
Apogee alt
584.8 km
Semi-major
6,961.0 km
B*
2.0180e-4
RAAN
220.5854°
Arg perigee
96.9307°
Mean anomaly
263.2229°
Rev number
9,651

§ Raw data

LEMU NGE1 60532U 24149BS  26145.15934832  .00002141  00000+0  20180-3 0  99902 60532  97.6847 220.5854 0002770  96.9307 263.2229 14.94839914 96514

JSON: /api/v1/satellites/60532 · /tle

For live sub-satellite position, see the globe view (requires WebGL).

§ Visibility from observer

Set your observer location to see the next 7 days of passes ≥ 10°. The values pass through the URL so the page stays shareable.

No JS? Fill the form by hand. The geolocation button needs JavaScript.

§ Radio — SatNOGS DB

ModeDescriptionDownlinkUplink
BPSK S-band telemetry 2.208 GHz

1 transmitter · refreshed weekly from db.satnogs.org